星链-31898 (STARLINK-31898 )

导读

STARLINK-31898是美国太空探索技术公司(SpaceX)于2024年5月28日发射的星链(Starlink)卫星,属于星链全球卫星互联网星座的组成部分。星链项目旨在构建低轨卫星通信系统,为全球提供高速互联网接入服务,该卫星发射后将与其他星链卫星组网,进一步拓展SpaceX星链网络的覆盖范围与服务能力,助力卫星直连手机等新业务发展。

基本信息
目录编号:
59905
目录名称:
STARLINK-31898
国际标识:
2024-100W
轨道中心:
EARTH
卫星名称:
星链-31898
卫星全名:
星链-31898 (STARLINK-31898 )
卫星状态:
在轨 (已飞行829 天)
发射日期:
2024-05-28 UTC
国别 :
美国 (US)
星等 :
--
轨道信息
数据来源 国际轨道数据 AOE轨道数据
星历时间 2026-09-04T12:12:10+0800
4小时前
查看轨道信息
2026-09-03T22:00:00+0800
18小时前
查看轨道信息
半长轴 6861.194km 6861.19km
偏心率 0.0000972 0.000001
轨道倾角 43.005° 43.000°
近地点辐角 263.406° 273.020°
升交点赤经 193.975° 197.319°
平近点角 96.668° 68.850°
近地点 482.39km 483.046km
远地点 483.724km 483.06km
周期 94.267分钟 94.267分钟
每日圈数 15.275775 15.27579
详细信息
固有亮度:
5
最大亮度:
1.5
卫星平台:
Starlink v2.0 mini
覆盖范围:
全球
运营商:
太空探索技术公司
运营商所在国:
美国
制造商(研发单位):
太空探索技术公司
制造商所在国:
美国
使用方式:
暂无
卫星简介
星链(Starlink)计划是由太空探索技术公司(SpaceX)提出的一个巨型低轨卫星互联网星座项目,计划在2019年至2024年间在太空搭建由约1.2万颗卫星组成的“星链”网络,其中1584颗将部署在地球上空550千米处的近地轨道,并从2020年开始工作。该卫星仍在工作。
2D轨道图
3D轨道图
轨道高度分析图
轨道倾角分析图
轨道综合分析图
查看轨道综合分析图
交会数据列表
事件ID 空间交会对象 最接近时刻(TCA) 交会距离 交会风险概率(CRP) 交会风险指数(CRI) 操作
CDM_260905-053805-870205-990521
2026-09-05T
05:38:52+0000
1.052 km
极远距离
2.035278E-5 中风险 0.61
CDM_260903-015804-361305-990523
ICESAT-2 (43613)
2026-09-03T
01:58:57+0000
1.826 km
极远距离
3.230811E-6 低风险 0.45